DW9446 Weather Reports


Display with metric or nautical units.
time (UTC)temp
F
wind
direction
speed
MPH
gust
MPH
rain 1hr
in
rain 24hr
in
rain mn
in
humidity
%
barometer
mb
20220520094839 75 360 7.0 18.0 0.00 0.00 0.00 81 1002.8
20220520094324 75 360 7.0 18.0 0.00 0.00 0.00 81 1002.7
20220520093830 75 360 8.0 14.0 0.00 0.00 0.00 81 1002.8
20220520093336 75 360 7.0 14.0 0.00 0.00 0.00 81 1002.8
20220520092824 75 360 6.0 18.0 0.00 0.00 0.00 81 1002.7
20220520092330 75 360 8.0 16.0 0.00 0.00 0.00 81 1002.8
20220520091836 75 360 6.0 18.0 0.00 0.00 0.00 81 1002.8
20220520091323 75 360 6.0 18.0 0.00 0.00 0.00 81 1002.8
20220520090828 75 360 6.0 13.0 0.00 0.00 0.00 81 1002.8
20220520090335 75 360 6.0 15.0 0.00 0.00 0.00 81 1002.7
20220520085821 75 360 8.0 16.0 0.00 0.00 0.00 81 1002.6
20220520085327 75 360 9.0 17.0 0.00 0.00 0.00 81 1002.6
20220520084832 75 360 8.0 17.0 0.00 0.00 0.00 81 1002.6
20220520084337 75 360 7.0 15.0 0.00 0.00 0.00 82 1002.5
20220520083826 75 360 5.0 13.0 0.00 0.00 0.00 82 1002.4
20220520083328 75 360 6.0 13.0 0.00 0.00 0.00 82 1002.4
20220520082833 75 360 4.0 15.0 0.00 0.00 0.00 81 1002.4
20220520082337 75 360 7.0 15.0 0.00 0.00 0.00 81 1002.4
20220520081823 75 360 6.0 15.0 0.00 0.00 0.00 81 1002.4
20220520081328 75 360 6.0 14.0 0.00 0.00 0.00 81 1002.4
20220520080834 75 360 4.0 13.0 0.00 0.00 0.00 81 1002.4
20220520080341 75 360 6.0 14.0 0.00 0.00 0.00 81 1002.5
20220520075826 75 360 7.0 15.0 0.00 0.00 0.00 80 1002.5
20220520075331 75 360 8.0 15.0 0.00 0.00 0.00 80 1002.4
20220520074821 75 360 7.0 14.0 0.00 0.00 0.00 80 1002.4
20220520074327 75 360 7.0 13.0 0.00 0.00 0.00 80 1002.4
20220520073832 75 360 5.0 17.0 0.00 0.00 0.00 80 1002.4
20220520073337 76 360 6.0 17.0 0.00 0.00 0.00 79 1002.4
20220520072822 76 360 6.0 16.0 0.00 0.00 0.00 79 1002.5
20220520072326 76 360 5.0 16.0 0.00 0.00 0.00 79 1002.4
20220520071831 76 360 7.0 16.0 0.00 0.00 0.00 78 1002.3
20220520071337 76 360 9.0 15.0 0.00 0.00 0.00 78 1002.5
20220520070824 76 360 8.0 15.0 0.00 0.00 0.00 78 1002.6
20220520070331 76 360 8.0 17.0 0.00 0.00 0.00 78 1002.6
20220520065836 77 360 6.0 17.0 0.00 0.00 0.00 77 1002.6
20220520065326 77 360 6.0 17.0 0.00 0.00 0.00 77 1002.6
20220520064831 77 360 9.0 20.0 0.00 0.00 0.00 76 1002.6
20220520064336 77 360 8.0 20.0 0.00 0.00 0.00 76 1002.7
20220520063822 77 360 5.0 15.0 0.00 0.00 0.00 75 1002.7
20220520063329 78 360 8.0 21.0 0.00 0.00 0.00 75 1002.8
20220520062832 78 360 10.0 21.0 0.00 0.00 0.00 74 1002.7
20220520062336 78 360 8.0 19.0 0.00 0.00 0.00 73 1002.7
20220520061823 78 360 11.0 18.0 0.00 0.00 0.00 73 1002.8
20220520061329 78 360 11.0 23.0 0.00 0.00 0.00 73 1002.8
20220520060835 78 360 7.0 23.0 0.00 0.00 0.00 72 1002.8
20220520060325 79 360 7.0 17.0 0.00 0.00 0.00 72 1002.8
20220520055829 79 360 7.0 17.0 0.00 0.00 0.00 71 1002.8
20220520055334 79 360 8.0 18.0 0.00 0.00 0.00 70 1002.9
20220520054821 79 360 10.0 18.0 0.00 0.00 0.00 70 1002.8
20220520054326 79 360 8.0 16.0 0.00 0.00 0.00 69 1002.7
20220520053831 80 360 7.0 18.0 0.00 0.00 0.00 69 1002.7
20220520053338 80 360 7.0 18.0 0.00 0.00 0.00 68 1002.7
20220520052823 80 360 9.0 17.0 0.00 0.00 0.00 67 1002.7
20220520052328 80 360 10.0 17.0 0.00 0.00 0.00 67 1002.7
20220520051834 80 360 9.0 19.0 0.00 0.00 0.00 66 1002.7
20220520051324 81 360 9.0 20.0 0.00 0.00 0.00 66 1002.8
20220520050830 81 360 8.0 19.0 0.00 0.00 0.00 65 1002.6
20220520050336 81 360 10.0 19.0 0.00 0.00 0.00 65 1002.8
20220520045820 81 360 7.0 19.0 0.00 0.00 0.00 64 1002.8
20220520045326 81 360 6.0 19.0 0.00 0.00 0.00 64 1002.8
20220520044831 82 360 10.0 17.0 0.00 0.00 0.00 63 1002.8
20220520044336 82 360 7.0 17.0 0.00 0.00 0.00 62 1002.8
20220520043822 82 360 9.0 16.0 0.00 0.00 0.00 62 1002.7
20220520043329 82 360 6.0 16.0 0.00 0.00 0.00 61 1002.7
20220520042832 82 360 8.0 18.0 0.00 0.00 0.00 61 1002.7
20220520042321 82 360 9.0 18.0 0.00 0.00 0.00 61 1002.8
20220520041826 83 360 6.0 17.0 0.00 0.00 0.00 60 1002.7
20220520041331 83 360 7.0 17.0 0.00 0.00 0.00 60 1002.6
20220520040837 83 360 7.0 16.0 0.00 0.00 0.00 59 1002.7
20220520040322 83 360 9.0 16.0 0.00 0.00 0.00 59 1002.8
20220520035828 83 360 7.0 13.0 0.00 0.00 0.00 59 1002.8
20220520035333 83 360 6.0 16.0 0.00 0.00 0.00 58 1002.8
20220520034839 83 360 8.0 16.0 0.00 0.00 0.00 58 1002.8
20220520034324 84 360 7.0 14.0 0.00 0.00 0.00 57 1002.7
20220520033829 84 360 6.0 12.0 0.00 0.00 0.00 57 1002.6
20220520033321 84 360 7.0 16.0 0.00 0.00 0.00 56 1002.6
20220520032826 84 360 10.0 16.0 0.00 0.00 0.00 56 1002.6
20220520032331 85 360 8.0 14.0 0.00 0.00 0.00 55 1002.5
20220520031836 85 360 6.0 15.0 0.00 0.00 0.00 54 1002.5
20220520031322 85 360 9.0 18.0 0.00 0.00 0.00 54 1002.4
20220520030828 85 360 7.0 18.0 0.00 0.00 0.00 54 1002.4
20220520030335 85 360 9.0 18.0 0.00 0.00 0.00 53 1002.4
20220520025838 85 360 8.0 15.0 0.00 0.00 0.00 53 1002.3
20220520025323 86 360 9.0 15.0 0.00 0.00 0.00 53 1002.3
20220520024829 86 360 9.0 22.0 0.00 0.00 0.00 53 1002.3
20220520024338 86 360 10.0 22.0 0.00 0.00 0.00 53 1002.3
20220520023825 86 360 6.0 15.0 0.00 0.00 0.00 52 1002.4
20220520023332 86 360 4.0 16.0 0.00 0.00 0.00 52 1002.4
20220520022835 86 360 10.0 16.0 0.00 0.00 0.00 51 1002.4
20220520022322 86 360 5.0 14.0 0.00 0.00 0.00 51 1002.2
20220520021829 86 360 8.0 17.0 0.00 0.00 0.00 51 1002.3
20220520021336 86 360 6.0 17.0 0.00 0.00 0.00 51 1002.3
20220520020823 87 360 6.0 14.0 0.00 0.00 0.00 51 1002.3
20220520020330 87 360 7.0 13.0 0.00 0.00 0.00 51 1002.2
20220520015834 87 360 7.0 13.0 0.00 0.00 0.00 51 1002.0
20220520015325 87 360 5.0 13.0 0.00 0.00 0.00 52 1002.0
20220520014832 87 360 7.0 16.0 0.00 0.00 0.00 52 1002.0
20220520014337 87 360 6.0 17.0 0.00 0.00 0.00 52 1002.1